Location: *
(45.9500°N, 9.0833°E)
Time: 14:14:54
(UTC+00:00)

SAR-Lupe-4 - Pass Details

Date: 03 March 2021
Orbit: 483 x 483 km, 98.2° (Epoch: 13 April)

Event Time Altitude Azimuth Distance (km) Brightness Sun altitude
Rises 18:00:34 0° 19° (NNE) 2,562 7.0 -9.0°
Reaches altitude 10° 18:02:42 10° 25° (NNE) 1,677 6.1 -9.4°
Maximum altitude 18:06:11 48° 100° (E) 647 3.8 -10.0°
Drops below altitude 10° 18:09:39 10° 176° (S) 1,661 6.2 -10.6°
Sets 18:11:45 0° 182° (S) 2,536 7.2 -11.0°
